This is the latest recevied weather packets stored in our database for station/object KQ4WWD. If no packets are shown the sender has not sent any weather packets the latest 10 day(s).
| Time | Temp. | Humidity | Pressure | Rain* | Wind** | Luminosity | Snow |
|---|---|---|---|---|---|---|---|
| 1777634868 | 22.22° C | 94% | 1011.6 hPa | 0 mm | - | 23 W/m² | - |
| 1777634566 | 21.67° C | 94% | 1011.5 hPa | 0 mm | - | 17 W/m² | - |
| 1777634262 | 22.22° C | 94% | 1011.6 hPa | 0 mm | - | 12 W/m² | - |
| 1777633959 | 22.22° C | 94% | 1011.4 hPa | 0 mm | - | 10 W/m² | - |
| 1777633656 | 22.22° C | 93% | 1011.2 hPa | 0 mm | - | 7 W/m² | - |
| 1777633354 | 22.22° C | 93% | 1011.4 hPa | 0 mm | - | 3 W/m² | - |
| 1777633052 | 22.22° C | 93% | 1011.1 hPa | 0 mm | - | 1 W/m² | - |
| 1777632748 | 22.22° C | 93% | 1011 hPa | 0 mm | - | 0 W/m² | - |
| 1777632443 | 22.22° C | 93% | 1011 hPa | 0 mm | - | 0 W/m² | - |
| 1777632141 | 22.22° C | 93% | 1010.8 hPa | 0 mm | - | 0 W/m² | - |
| 1777631838 | 22.22° C | 94% | 1011.1 hPa | 0 mm | - | 0 W/m² | - |
| 1777631537 | 21.67° C | 94% | 1010.7 hPa | 0 mm | - | 0 W/m² | - |
| 1777631233 | 21.67° C | 94% | 1010.8 hPa | 0 mm | - | 0 W/m² | - |
| 1777630931 | 21.67° C | 94% | 1010.6 hPa | 0 mm | - | 0 W/m² | - |
| 1777630626 | 21.67° C | 94% | 1010.7 hPa | 0 mm | - | 0 W/m² | - |
| 1777630323 | 21.67° C | 94% | 1010.7 hPa | 0 mm | - | 0 W/m² | - |
| 1777630021 | 21.67° C | 94% | 1010.7 hPa | 0 mm | - | 0 W/m² | - |
| 1777629718 | 21.67° C | 94% | 1010.5 hPa | 0 mm | - | 0 W/m² | - |
| 1777629415 | 21.67° C | 94% | 1010.6 hPa | 0 mm | - | 0 W/m² | - |
| 1777629110 | 22.22° C | 93% | 1010.7 hPa | 0 mm | - | 0 W/m² | - |
| 1777628807 | 22.22° C | 93% | 1010.9 hPa | 0 mm | - | 0 W/m² | - |
| 1777628504 | 22.22° C | 93% | 1010.5 hPa | 0 mm | - | 0 W/m² | - |
| 1777628200 | 22.22° C | 93% | 1010.6 hPa | 0 mm | - | 0 W/m² | - |
| 1777627896 | 22.22° C | 93% | 1010.2 hPa | 0 mm | - | 0 W/m² | - |
| 1777627595 | 22.22° C | 93% | 1010 hPa | 0 mm | - | 0 W/m² | - |
* Rain latest hour (hover to see other rain measurements)
** Current wind speed in m/s (hover to see current wind gust speed)